DW7754 Weather Reports


time (UTC)temp
F
wind
direction
speed
knots
gust
knots
rain 1hr
in
rain 24hr
in
rain mn
in
humidity
%
barometer
mb
20260906051534 72 55 0.0 0.0 0.00 0.00 0.00 94 1012.1
20260906050049 73 56 0.0 2.6 0.00 0.00 0.00 95 1012.0
20260906044529 73 44 0.0 0.0 0.00 0.00 0.00 95 1012.0
20260906043027 73 44 0.0 4.3 0.00 0.00 0.00 95 1011.8
20260906041525 73 18 0.0 2.6 0.00 0.00 0.00 94 1011.7
20260906040022 73 58 0.0 6.1 0.00 0.00 0.00 94 1011.5
20260906034531 74 47 0.0 4.3 0.00 0.00 0.00 94 1011.6
20260906033026 74 43 0.0 5.2 0.00 0.00 0.00 93 1011.6
20260906031526 75 55 0.0 4.3 0.00 0.00 0.00 93 1011.4
20260906030021 75 63 0.9 5.2 0.00 0.00 0.00 92 1011.4
20260906024520 75 63 0.9 7.0 0.00 0.00 0.00 91 1011.5
20260906023024 75 66 0.9 7.8 0.00 0.00 0.00 91 1011.3
20260906021520 75 65 0.0 5.2 0.00 0.00 0.00 91 1011.2
20260906020018 75 55 0.9 7.8 0.00 0.00 0.00 92 1011.2
20260906014518 75 77 0.0 4.3 0.00 0.00 0.00 89 1010.7
20260906013018 75 67 0.0 2.6 0.00 0.00 0.00 87 1010.5
20260906011518 76 58 0.0 0.0 0.00 0.00 0.00 85 1010.4
20260906010017 76 58 0.0 0.0 0.00 0.00 0.00 84 1010.0
20260906004516 77 58 0.0 0.0 0.00 0.00 0.00 83 1010.2
20260906003016 77 58 0.0 0.0 0.00 0.00 0.00 81 1009.6
20260906001516 78 58 0.0 0.0 0.00 0.00 0.00 80 1009.6
20260906000015 78 58 0.0 0.0 0.00 0.00 0.00 79 1009.5
20260905234515 78 61 0.0 2.6 0.00 0.00 0.00 78 1009.4
20260905233023 79 63 0.0 0.0 0.00 0.00 0.00 78 1009.5
20260905231514 79 65 0.0 3.5 0.00 0.00 0.00 77 1009.6
20260905230013 81 64 0.9 5.2 0.00 0.00 0.00 75 1010.0
20260905224513 83 44 0.9 7.0 0.00 0.00 0.00 71 1009.8
20260905223012 88 59 1.7 7.8 0.00 0.00 0.00 66 1009.3
20260905221512 90 296 0.0 3.5 0.00 0.00 0.00 65 1008.7
20260905220011 90 309 0.9 7.0 0.00 0.00 0.00 64 1008.9
20260905214511 90 300 0.9 5.2 0.00 0.00 0.00 64 1008.9
20260905213009 90 285 0.0 3.5 0.00 0.00 0.00 64 1008.9
20260905211508 90 325 0.0 5.2 0.00 0.00 0.00 64 1008.7
20260905210007 91 300 0.0 6.1 0.00 0.00 0.00 63 1009.0
20260905204509 91 315 0.0 5.2 0.00 0.00 0.00 61 1009.3
20260905203004 92 295 0.9 7.0 0.00 0.00 0.00 57 1009.3
20260905201501 93 325 0.0 7.8 0.00 0.00 0.00 56 1009.4
20260905194600 93 286 0.0 1.7 0.00 0.00 0.00 56 1009.6
20260905193057 93 302 0.9 5.2 0.00 0.00 0.00 56 1009.8
20260905191612 93 293 0.0 4.3 0.00 0.00 0.00 56 1010.0
20260905190054 92 211 0.0 5.2 0.00 0.00 0.00 56 1010.2
20260905184606 92 222 0.0 5.2 0.00 0.00 0.00 56 1010.3
20260905183051 91 269 0.0 3.5 0.00 0.00 0.00 57 1010.7
20260905181550 91 296 0.9 5.2 0.00 0.00 0.00 56 1010.7
20260905180050 90 309 0.0 5.2 0.00 0.00 0.00 59 1010.8
20260905174546 88 272 0.9 6.1 0.00 0.00 0.00 60 1010.9
20260905173038 87 236 0.9 7.0 0.00 0.00 0.00 61 1011.0
20260905171536 86 225 0.0 5.2 0.00 0.00 0.00 63 1011.3
20260905170032 84 218 0.0 4.3 0.00 0.00 0.00 66 1011.5
20260905164528 83 220 0.9 6.1 0.00 0.00 0.00 67 1011.8
20260905163026 81 242 0.0 2.6 0.00 0.00 0.00 70 1012.0
20260905161525 82 236 0.0 0.0 0.00 0.00 0.00 72 1012.4
20260905160041 82 236 0.0 3.5 0.00 0.00 0.00 66 1012.3
20260905154522 83 223 0.9 5.2 0.00 0.00 0.00 66 1012.2
20260905153018 82 272 0.0 4.3 0.00 0.00 0.00 69 1012.1
20260905151515 80 207 0.9 6.1 0.00 0.00 0.00 71 1012.1
20260905150021 79 218 0.0 6.1 0.00 0.00 0.00 74 1012.0
20260905144530 78 185 0.9 10.4 0.00 0.00 0.00 75 1012.0
20260905143010 77 210 3.5 6.1 0.00 0.00 0.00 76 1012.2
20260905141613 76 173 2.6 8.7 0.00 0.00 0.00 78 1012.4
20260905140103 76 132 0.0 6.1 0.00 0.00 0.00 79 1012.4
20260905134606 75 124 0.9 8.7 0.00 0.00 0.00 81 1012.4
20260905133057 74 163 0.9 8.7 0.00 0.00 0.00 82 1012.6
20260905131556 73 134 0.9 6.1 0.00 0.00 0.00 82 1012.6
20260905130047 72 117 0.9 7.8 0.00 0.00 0.00 84 1012.5
20260905124543 72 130 2.6 7.8 0.00 0.00 0.00 86 1012.3
20260905123038 71 140 0.9 5.2 0.00 0.00 0.00 87 1012.3
20260905121537 70 150 0.0 7.8 0.00 0.00 0.00 87 1012.1
20260905114509 70 124 0.9 6.1 0.00 0.00 0.00 87 1012.2
20260905113013 70 79 0.0 3.5 0.00 0.00 0.00 87 1012.2
20260905111506 71 123 0.0 7.0 0.00 0.00 0.00 87 1012.1
20260905110010 71 84 0.0 7.0 0.00 0.00 0.00 87 1012.2
20260905104503 71 51 0.9 8.7 0.00 0.00 0.00 87 1012.1
20260905103003 72 59 0.9 9.6 0.00 0.00 0.00 87 1012.3
20260905101557 73 53 2.6 14.8 0.00 0.00 0.00 90 1012.0
20260905100112 74 165 0.0 0.0 0.00 0.00 0.00 96 1010.9
20260905094606 74 165 0.0 0.0 0.00 0.00 0.00 95 1010.7
20260905093056 74 165 0.0 0.0 0.00 0.00 0.00 95 1010.8
20260905091605 74 165 0.0 0.0 0.00 0.00 0.00 95 1010.7
20260905090051 74 165 0.0 0.0 0.00 0.00 0.00 95 1010.7
20260905084552 74 165 0.0 0.0 0.00 0.00 0.00 95 1010.6
20260905083049 74 165 0.0 0.0 0.00 0.00 0.00 94 1010.6
20260905081549 74 165 0.0 0.0 0.00 0.00 0.00 94 1010.6
20260905080048 75 165 0.0 0.0 0.00 0.00 0.00 94 1010.5
20260905074556 75 166 0.0 0.0 0.00 0.00 0.00 94 1010.2
20260905073100 75 166 0.0 0.0 0.00 0.00 0.00 94 1009.8
20260905071545 75 152 0.0 0.0 0.00 0.00 0.00 94 1009.9
20260905070045 74 125 0.0 0.0 0.00 0.00 0.00 94 1009.9
20260905064550 75 125 0.0 0.0 0.00 0.00 0.00 93 1010.1
20260905063041 75 125 0.0 0.0 0.00 0.00 0.00 93 1010.4
20260905061538 75 125 0.0 0.0 0.00 0.00 0.00 92 1010.8
20260905060041 75 125 0.0 0.0 0.00 0.00 0.00 92 1010.7
20260905054536 75 125 0.0 0.9 0.00 0.00 0.00 91 1010.7
20260905053036 75 125 0.0 0.0 0.00 0.00 0.00 91 1011.1